• en Suisse
  • Liste des pays
  • À 7 jours
  • Température de l'eau
  • Carte satellitaire
  • Carte météo
  • Widgets météo
  • user-avatar
    Se connecter

    Météo par heure à Losha

    Ce jour, 23 Septembre, Dimanche

    Heure Température Précipitation Vent Pression Humidité
    00:00 +8°C° 0 mm 3 m/s 745 mmHg 93%
    01:00 +8°C° 0 mm 3 m/s 745 mmHg 93%
    02:00 +7°C° 0 mm 3 m/s 745 mmHg 93%
    03:00 +7°C° 0 mm 3 m/s 745 mmHg 93%
    04:00 +7°C° 0 mm 3 m/s 745 mmHg 93%
    05:00 +7°C° 0 mm 3 m/s 745 mmHg 93%
    06:00 +7°C° 0 mm 3 m/s 745 mmHg 90%
    07:00 +7°C° 0 mm 4 m/s 745 mmHg 86%
    08:00 +8°C° 0 mm 4 m/s 745 mmHg 83%
    09:00 +9°C° 0 mm 5 m/s 745 mmHg 76%
    10:00 +12°C° 0 mm 5 m/s 745 mmHg 69%
    11:00 +14°C° 0 mm 6 m/s 745 mmHg 62%
    12:00 +14°C° 0.3 mm 6 m/s 744 mmHg 61%
    13:00 +14°C° 0.3 mm 6 m/s 744 mmHg 60%
    14:00 +14°C° 0.3 mm 6 m/s 744 mmHg 59%
    15:00 +14°C° 0.2 mm 5 m/s 744 mmHg 64%
    16:00 +13°C° 0.2 mm 4 m/s 743 mmHg 68%
    17:00 +13°C° 0.2 mm 3 m/s 743 mmHg 72%
    18:00 +12°C° 0.2 mm 3 m/s 743 mmHg 77%
    19:00 +11°C° 0.2 mm 3 m/s 743 mmHg 82%
    20:00 +10°C° 0.2 mm 2 m/s 743 mmHg 87%
    21:00 +10°C° 0.1 mm 2 m/s 742 mmHg 88%
    22:00 +10°C° 0.1 mm 2 m/s 742 mmHg 90%
    23:00 +9°C° 0.1 mm 2 m/s 742 mmHg 91%

    Demain, 24 Septembre, Lundi

    Heure Température Précipitation Vent Pression Humidité
    00:00 +9°C° 0.6 mm 2 m/s 741 mmHg 93%
    01:00 +9°C° 0.6 mm 2 m/s 741 mmHg 94%
    02:00 +9°C° 0.6 mm 3 m/s 740 mmHg 95%
    03:00 +9°C° 1.1 mm 3 m/s 739 mmHg 95%
    04:00 +9°C° 1.1 mm 3 m/s 738 mmHg 95%
    05:00 +9°C° 1.1 mm 3 m/s 736 mmHg 95%
    06:00 +9°C° 1.7 mm 3 m/s 736 mmHg 95%
    07:00 +9°C° 1.7 mm 3 m/s 735 mmHg 94%
    08:00 +9°C° 1.7 mm 3 m/s 734 mmHg 94%
    09:00 +8°C° 0.9 mm 4 m/s 734 mmHg 93%
    10:00 +8°C° 0.9 mm 5 m/s 734 mmHg 93%
    11:00 +8°C° 0.9 mm 5 m/s 734 mmHg 92%
    12:00 +9°C° 0.7 mm 6 m/s 735 mmHg 87%
    13:00 +9°C° 0.7 mm 7 m/s 735 mmHg 83%
    14:00 +9°C° 0.7 mm 8 m/s 736 mmHg 79%
    15:00 +9°C° 0.1 mm 7 m/s 737 mmHg 78%
    16:00 +9°C° 0.1 mm 6 m/s 737 mmHg 77%
    17:00 +10°C° 0.1 mm 5 m/s 738 mmHg 76%
    18:00 +9°C° 0 mm 5 m/s 738 mmHg 79%
    19:00 +8°C° 0 mm 4 m/s 739 mmHg 82%
    20:00 +7°C° 0 mm 4 m/s 740 mmHg 84%
    21:00 +7°C° 0.1 mm 4 m/s 740 mmHg 85%
    22:00 +7°C° 0.1 mm 5 m/s 741 mmHg 86%
    23:00 +7°C° 0.1 mm 5 m/s 741 mmHg 87%

    Après-demain, 25 Septembre, Mardi

    Heure Température Précipitation Vent Pression Humidité
    00:00 +6°C° 0 mm 5 m/s 742 mmHg 86%
    01:00 +5°C° 0 mm 5 m/s 742 mmHg 86%
    02:00 +4°C° 0 mm 6 m/s 743 mmHg 86%
    03:00 +3°C° 0 mm 6 m/s 744 mmHg 86%
    04:00 +3°C° 0 mm 6 m/s 744 mmHg 85%
    05:00 +2°C° 0 mm 6 m/s 745 mmHg 85%
    06:00 +2°C° 0 mm 6 m/s 746 mmHg 83%
    07:00 +3°C° 0 mm 7 m/s 746 mmHg 80%
    08:00 +3°C° 0 mm 7 m/s 747 mmHg 77%
    09:00 +4°C° 0 mm 7 m/s 747 mmHg 72%
    10:00 +5°C° 0 mm 7 m/s 748 mmHg 68%
    11:00 +8°C° 0 mm 7 m/s 748 mmHg 63%
    12:00 +8°C° 0.2 mm 7 m/s 749 mmHg 61%
    13:00 +8°C° 0.2 mm 7 m/s 749 mmHg 59%
    14:00 +8°C° 0.2 mm 7 m/s 749 mmHg 57%
    15:00 +8°C° 0.1 mm 7 m/s 750 mmHg 59%
    16:00 +7°C° 0.1 mm 6 m/s 750 mmHg 61%
    17:00 +7°C° 0.1 mm 5 m/s 751 mmHg 63%
    18:00 +6°C° 0 mm 5 m/s 751 mmHg 65%
    19:00 +5°C° 0 mm 4 m/s 752 mmHg 67%
    20:00 +4°C° 0 mm 4 m/s 753 mmHg 69%
    21:00 +4°C° 0 mm 4 m/s 754 mmHg 68%
    22:00 +4°C° 0 mm 4 m/s 754 mmHg 68%
    23:00 +3°C° 0 mm 4 m/s 755 mmHg 67%

    26 Septembre, Mercredi

    Heure Température Précipitation Vent Pression Humidité
    00:00 +3°C° 0 mm 4 m/s 755 mmHg 71%
    01:00 +1°C° 0 mm 4 m/s 756 mmHg 74%
    02:00 +1°C° 0 mm 4 m/s 756 mmHg 77%
    03:00 +2°C° 0 mm 3 m/s 757 mmHg 81%
    04:00 +1°C° 0 mm 3 m/s 757 mmHg 85%
    05:00 +1°C° 0 mm 3 m/s 757 mmHg 89%
    06:00 +2°C° 0 mm 3 m/s 758 mmHg 86%
    07:00 +3°C° 0 mm 3 m/s 758 mmHg 82%
    08:00 +4°C° 0 mm 3 m/s 758 mmHg 78%
    09:00 +6°C° 0 mm 4 m/s 758 mmHg 71%
    10:00 +7°C° 0 mm 4 m/s 758 mmHg 64%
    11:00 +9°C° 0 mm 5 m/s 758 mmHg 57%
    12:00 +9°C° 0 mm 5 m/s 757 mmHg 57%
    13:00 +10°C° 0 mm 5 m/s 757 mmHg 57%
    14:00 +10°C° 0 mm 6 m/s 756 mmHg 57%
    15:00 +10°C° 0 mm 5 m/s 756 mmHg 60%
    16:00 +9°C° 0 mm 5 m/s 755 mmHg 63%
    17:00 +9°C° 0 mm 5 m/s 755 mmHg 66%
    18:00 +8°C° 0 mm 5 m/s 755 mmHg 65%
    19:00 +8°C° 0 mm 5 m/s 754 mmHg 64%
    20:00 +8°C° 0 mm 5 m/s 754 mmHg 63%
    21:00 +8°C° 0.1 mm 6 m/s 753 mmHg 65%
    22:00 +8°C° 0.1 mm 6 m/s 753 mmHg 67%
    23:00 +8°C° 0.1 mm 7 m/s 752 mmHg 70%

    27 Septembre, Jeudi

    Heure Température Précipitation Vent Pression Humidité
    00:00 +6°C° 0 mm 7 m/s 751 mmHg 70%
    01:00 +6°C° 0 mm 7 m/s 751 mmHg 70%
    02:00 +6°C° 0 mm 7 m/s 750 mmHg 71%
    03:00 +6°C° 0.3 mm 8 m/s 749 mmHg 75%
    04:00 +6°C° 0.3 mm 8 m/s 748 mmHg 79%
    05:00 +6°C° 0.3 mm 8 m/s 748 mmHg 83%
    06:00 +6°C° 0.4 mm 8 m/s 747 mmHg 84%
    07:00 +6°C° 0.4 mm 8 m/s 747 mmHg 86%
    08:00 +8°C° 0.4 mm 7 m/s 747 mmHg 88%
    09:00 +8°C° 0.1 mm 7 m/s 747 mmHg 87%
    10:00 +9°C° 0.1 mm 7 m/s 747 mmHg 86%
    11:00 +10°C° 0.1 mm 7 m/s 747 mmHg 85%
    12:00 +10°C° 0.1 mm 7 m/s 747 mmHg 84%
    13:00 +11°C° 0.1 mm 7 m/s 747 mmHg 83%
    14:00 +11°C° 0.1 mm 6 m/s 746 mmHg 82%
    15:00 +11°C° 0.1 mm 6 m/s 747 mmHg 81%
    16:00 +13°C° 0.1 mm 6 m/s 747 mmHg 79%
    17:00 +13°C° 0.1 mm 5 m/s 747 mmHg 78%
    18:00 +12°C° 0 mm 5 m/s 747 mmHg 80%
    19:00 +10°C° 0 mm 5 m/s 747 mmHg 83%
    20:00 +10°C° 0 mm 4 m/s 747 mmHg 86%
    21:00 +10°C° 0 mm 4 m/s 747 mmHg 87%
    22:00 +10°C° 0 mm 4 m/s 747 mmHg 88%
    23:00 +10°C° 0 mm 4 m/s 747 mmHg 89%

    28 Septembre, Vendredi

    Heure Température Précipitation Vent Pression Humidité
    00:00 +10°C° 0 mm 4 m/s 747 mmHg 90%
    01:00 +10°C° 0 mm 4 m/s 747 mmHg 92%
    02:00 +10°C° 0 mm 4 m/s 747 mmHg 93%
    03:00 +10°C° 0 mm 5 m/s 746 mmHg 93%
    04:00 +10°C° 0 mm 6 m/s 745 mmHg 92%
    05:00 +11°C° 0 mm 7 m/s 745 mmHg 92%
    06:00 +11°C° 0.1 mm 7 m/s 745 mmHg 90%
    07:00 +12°C° 0.1 mm 8 m/s 744 mmHg 89%
    08:00 +12°C° 0.1 mm 8 m/s 744 mmHg 87%
    09:00 +12°C° 0.3 mm 8 m/s 745 mmHg 87%
    10:00 +12°C° 0.3 mm 7 m/s 745 mmHg 88%
    11:00 +13°C° 0.3 mm 6 m/s 745 mmHg 88%
    12:00 +13°C° 0.3 mm 5 m/s 746 mmHg 88%
    13:00 +13°C° 0.3 mm 4 m/s 746 mmHg 87%
    14:00 +13°C° 0.3 mm 3 m/s 746 mmHg 86%
    15:00 +12°C° 0.1 mm 3 m/s 746 mmHg 87%
    16:00 +13°C° 0.1 mm 2 m/s 746 mmHg 88%
    17:00 +13°C° 0.1 mm 1 m/s 747 mmHg 89%
    18:00 +12°C° 0.2 mm 1 m/s 747 mmHg 89%
    19:00 +12°C° 0.2 mm 1 m/s 747 mmHg 90%
    20:00 +12°C° 0.2 mm 1 m/s 747 mmHg 90%
    21:00 +11°C° 0.2 mm 1 m/s 748 mmHg 90%
    22:00 +11°C° 0.2 mm 1 m/s 748 mmHg 89%
    23:00 +11°C° 0.2 mm 1 m/s 748 mmHg 89%
    Voir plus